, AK

(GMT )
Sparrevohn

Weather History for PASV - January, 2013

Change the Weather History Date:

Saturday, January 5, 2013

  Actual Average Record
Temperature  
Mean Temperature 32 °F -  
Max Temperature 34 °F 14 °F 41 °F (2014)
Min Temperature 29 °F 0 °F -33 °F (1997)
Degree Days  
Heating Degree Days 33    
Moisture  
Dew Point 23 °F    
Average Humidity 70    
Maximum Humidity 96    
Minimum Humidity 48    
Precipitation  
Precipitation 0.00 in - - ()
Sea Level Pressure  
Sea Level Pressure 29.31 in    
Wind  
Wind Speed 10 mph (East)    
Max Wind Speed 23 mph    
Max Gust Speed 30 mph    
Visibility 9 miles    
Events Rain , Snow    
Averages and records for this station are not official NWS values.
T = Trace of Precipitation, MM = Missing Value Source: NWS Daily Summary

Daily Weather History Graph

Daily Weather History Graph

Search for Another Location

Airport or City:

Trip Planner

Search our weather history database for the weather conditions in past years. The results will help you decide how hot, cold, wet, or windy it might be!

Date:

Astronomy

Jan. 05, 2013 Rise Set
Actual Time 10:31 AM AKST 4:24 PM AKST
Civil Twilight 9:32 AM AKST 5:23 PM AKST
Nautical Twilight 8:34 AM AKST 6:22 PM AKST
Astronomical Twilight 7:41 AM AKST 7:14 PM AKST
Moon 2:47 AM AKST (1/5) 12:16 PM AKST (1/5)
Length of Visible Light 7h 51m
Length of Day
5h 53m
Last Quarter, 42% of the Moon is Illuminated
Jan 5
Last Quarter
Jan 11
New
Jan 18
First Quarter
Jan 26
Full
Feb 3
Last Quarter

Hourly Weather History & Observations

Time (AKST) Temp. Windchill Dew Point Humidity Pressure Visibility Wind Dir Wind Speed Gust Speed Precip Events Conditions
12:55 AM 33.4 °F 23.5 °F 17.4 °F 52% 29.57 in 10.0 mi SE 15.0 mph 25.3 mph N/A   Mostly Cloudy
1:55 AM 33.3 °F 20.9 °F 16.2 °F 50% 29.55 in 10.0 mi ESE 23.0 mph 29.9 mph N/A   Mostly Cloudy
3:55 AM 34.3 °F 25.0 °F 16.3 °F 48% 29.51 in 10.0 mi ESE 13.8 mph 26.5 mph N/A   Mostly Cloudy
4:55 AM 34.5 °F 24.8 °F 16.7 °F 48% 29.48 in 10.0 mi ESE 15.0 mph 26.5 mph N/A   Mostly Cloudy
5:55 AM 34.3 °F 25.0 °F 17.2 °F 50% 29.44 in 10.0 mi ESE 13.8 mph 23.0 mph N/A   Mostly Cloudy
6:55 AM 33.8 °F 26.4 °F 18.7 °F 54% 29.42 in 10.0 mi East 9.2 mph 17.3 mph N/A   Overcast
7:16 AM 33.8 °F 26.4 °F 21.2 °F 60% 29.41 in 10.0 mi ESE 9.2 mph 23.0 mph N/A Rain Light Rain
7:55 AM 32.7 °F 25.0 °F 22.6 °F 66% 29.39 in 10.0 mi East 9.2 mph 23.0 mph N/A Snow Light Snow Showers
8:16 AM 32.0 °F 23.0 °F 23.0 °F 69% 29.39 in 10.0 mi ESE 11.5 mph 17.3 mph N/A   Overcast
8:55 AM 33.3 °F 24.1 °F 21.7 °F 63% 29.37 in 10.0 mi SE 12.7 mph 18.4 mph N/A   Overcast
9:01 AM 33.8 °F 27.0 °F 23.0 °F 65% 29.36 in 10.0 mi ESE 8.1 mph 18.4 mph N/A Rain Light Rain
9:31 AM 33.8 °F 27.0 °F 21.2 °F 60% 29.34 in 10.0 mi ESE 8.1 mph - N/A   Overcast
9:55 AM 32.9 °F 27.5 °F 20.3 °F 60% 29.33 in 10.0 mi NNE 5.8 mph - N/A   Overcast
10:55 AM 32.4 °F 26.9 °F 20.5 °F 62% 29.32 in 10.0 mi NE 5.8 mph - N/A   Overcast
11:55 AM 32.4 °F 26.0 °F 21.0 °F 63% 29.29 in 10.0 mi NE 6.9 mph - N/A   Overcast
12:55 PM 30.4 °F 25.6 °F 21.4 °F 69% 29.28 in 10.0 mi NE 4.6 mph - N/A   Overcast
1:55 PM 33.3 °F 27.9 °F 20.8 °F 60% 29.25 in 10.0 mi ENE 5.8 mph - N/A   Overcast
2:31 PM 32.0 °F 24.8 °F 26.6 °F 80% 29.25 in 4.0 mi ENE 8.1 mph - N/A Snow Light Snow
2:55 PM 30.0 °F 22.4 °F 25.5 °F 83% 29.24 in 2.0 mi ENE 8.1 mph - N/A Snow Light Snow
3:01 PM 30.2 °F 22.6 °F 26.6 °F 86% 29.24 in 2.5 mi ENE 8.1 mph - N/A Snow Light Snow
3:16 PM 30.2 °F 22.6 °F 26.6 °F 86% 29.23 in 5.0 mi ENE 8.1 mph - N/A Snow Light Snow
3:46 PM 30.2 °F 22.6 °F 26.6 °F 86% 29.22 in 10.0 mi ENE 8.1 mph - N/A Rain , Snow Light Freezing Rain
3:55 PM 30.9 °F 24.3 °F 26.8 °F 85% 29.22 in 10.0 mi ENE 6.9 mph - N/A Rain , Snow Light Freezing Rain
4:55 PM 32.5 °F 27.1 °F 24.6 °F 73% 29.21 in 10.0 mi East 5.8 mph - N/A   Overcast
5:55 PM 33.4 °F - 24.8 °F 71% 29.22 in 10.0 mi Variable 2.3 mph - N/A   Mostly Cloudy
6:55 PM 32.0 °F 28.7 °F 24.8 °F 75% 29.14 in 10.0 mi West 3.5 mph - N/A   Overcast
7:55 PM 30.9 °F - 25.9 °F 82% 29.22 in 10.0 mi West 2.3 mph - N/A   Overcast
8:55 PM 31.5 °F - 23.0 °F 71% 29.24 in 10.0 mi WNW 2.3 mph - N/A Rain Light Freezing Rain
9:16 PM 32.0 °F 28.7 °F 23.0 °F 69% 29.24 in 10.0 mi ESE 3.5 mph - N/A   Mostly Cloudy
9:55 PM 30.6 °F - 23.4 °F 75% 29.25 in 10.0 mi SW 1.2 mph - N/A   Mostly Cloudy
10:55 PM 31.1 °F 27.7 °F 25.2 °F 79% 29.26 in 10.0 mi Variable 3.5 mph - N/A Rain Light Freezing Rain
11:01 PM 32.0 °F 27.5 °F 24.8 °F 75% 29.26 in 10.0 mi East 4.6 mph - N/A Rain , Snow Light Rain
11:16 PM 30.2 °F - 26.6 °F 86% 29.28 in 5.0 mi SSW 1.2 mph - N/A Rain , Snow Light Freezing Rain
11:31 PM 30.2 °F - 28.4 °F 93% 29.29 in 3.0 mi Variable 1.2 mph - N/A Snow Light Snow
11:55 PM 29.1 °F - 28.0 °F 96% 29.30 in 3.0 mi Calm Calm - N/A Snow Light Snow